Weather History for Newberry, SC

Change the Weather History Date:

Friday, February 8, 2013

  Actual Average (KFDW) Record (KFDW)
Temperature  
Mean Temperature 52 °F -  
Max Temperature 62 °F 53 °F 62 °F (2012)
Min Temperature 41 °F 30 °F 35 °F (2012)
Degree Days  
Heating Degree Days 14    
Growing Degree Days 2 (Base 50)    
Moisture  
Dew Point 42 °F    
Average Humidity 76    
Maximum Humidity 100    
Minimum Humidity 47    
Precipitation  
Precipitation 0.00 in - - ()
Sea Level Pressure  
Sea Level Pressure 29.99 in    
Wind  
Wind Speed 11 mph (NW)    
Max Wind Speed 17 mph    
Max Gust Speed 24 mph    
Visibility 10 miles    
Events      
Averages and records for this station are not official NWS values.
T = Trace of Precipitation, MM = Missing Value Source: NWS Daily Summary

Daily Weather History Graph

Daily Weather History Graph

Search for Another Location

Airport:

Trip Planner

Search our weather history database for the weather conditions in past years. The results will help you decide how hot, cold, wet, or windy it might be!

Date:

Astronomy

Feb. 08, 2013 Rise Set
Actual Time 7:18 AM EST 6:03 PM EST
Civil Twilight 6:52 AM EST 6:29 PM EST
Nautical Twilight 6:22 AM EST 6:59 PM EST
Astronomical Twilight 5:53 AM EST 7:28 PM EST
Moon 5:43 AM EST (2/8) 4:36 PM EST (2/8)
Length of Visible Light 11h 37m
Length of Day
10h 45m
Waning Crescent, 3% of the Moon is Illuminated
Feb 8
Waning Crescent
Feb 10
New
Feb 17
First Quarter
Feb 25
Full
Mar 4
Last Quarter

Hourly Weather History & Observations

Time (EST) Temp. Windchill Dew Point Humidity Pressure Visibility Wind Dir Wind Speed Gust Speed Precip Events Conditions
12:15 AM 42.8 °F 34.8 °F 42.8 °F 100% 29.95 in 10.0 mi North 17.3 mph 24.2 mph N/A   Overcast
12:35 AM 42.8 °F 34.8 °F 42.8 °F 100% 29.95 in 10.0 mi NNE 17.3 mph - N/A   Overcast
12:55 AM 42.8 °F 35.4 °F 42.8 °F 100% 29.94 in 10.0 mi North 15.0 mph 21.9 mph N/A   Overcast
1:15 AM 42.8 °F 35.8 °F 42.8 °F 100% 29.93 in 10.0 mi North 13.8 mph 23.0 mph N/A   Overcast
1:35 AM 42.8 °F 36.2 °F 42.8 °F 100% 29.91 in 10.0 mi North 12.7 mph 20.7 mph N/A   Overcast
1:55 AM 42.8 °F 35.1 °F 42.8 °F 100% 29.91 in 7.0 mi NNE 16.1 mph 21.9 mph N/A   Overcast
2:15 AM 42.8 °F 35.1 °F 42.8 °F 100% 29.91 in 10.0 mi NNE 16.1 mph 19.6 mph N/A   Overcast
2:35 AM 42.8 °F 37.0 °F 42.8 °F 100% 29.92 in 10.0 mi North 10.4 mph - N/A   Overcast
2:55 AM 42.8 °F 36.2 °F 42.8 °F 100% 29.94 in 10.0 mi North 12.7 mph - N/A   Overcast
3:15 AM 42.8 °F 38.0 °F 42.8 °F 100% 29.94 in 10.0 mi North 8.1 mph - N/A   Overcast
3:35 AM 42.8 °F 38.0 °F 42.8 °F 100% 29.94 in 10.0 mi North 8.1 mph - N/A   Overcast
3:55 AM 42.8 °F 39.3 °F 42.8 °F 100% 29.94 in 10.0 mi North 5.8 mph 9.2 mph N/A   Overcast
4:35 AM 42.8 °F 39.3 °F 42.8 °F 100% 29.94 in 10.0 mi North 5.8 mph - N/A   Overcast
4:55 AM 42.8 °F 38.0 °F 42.8 °F 100% 29.94 in 10.0 mi North 8.1 mph - N/A   Overcast
5:15 AM 42.8 °F 38.0 °F 42.8 °F 100% 29.94 in 10.0 mi North 8.1 mph - N/A   Overcast
5:35 AM 42.8 °F 37.0 °F 42.8 °F 100% 29.93 in 10.0 mi North 10.4 mph - N/A   Overcast
5:55 AM 42.8 °F 39.3 °F 42.8 °F 100% 29.94 in 10.0 mi North 5.8 mph - N/A   Overcast
6:15 AM 41.0 °F 37.1 °F 41.0 °F 100% 29.94 in 10.0 mi North 5.8 mph - N/A   Overcast
6:35 AM 41.0 °F 36.4 °F 41.0 °F 100% 29.96 in 10.0 mi North 6.9 mph - N/A   Overcast
6:55 AM 41.0 °F 36.4 °F 41.0 °F 100% 29.96 in 10.0 mi North 6.9 mph - N/A   Overcast
7:15 AM 42.8 °F 41.1 °F 42.8 °F 100% 29.97 in 10.0 mi NW 3.5 mph - N/A   Overcast
7:35 AM 42.8 °F 40.1 °F 42.8 °F 100% 29.97 in 10.0 mi NNW 4.6 mph - N/A   Overcast
7:55 AM 42.8 °F 41.1 °F 42.8 °F 100% 29.99 in 10.0 mi West 3.5 mph - N/A   Overcast
8:15 AM 42.8 °F 40.1 °F 42.8 °F 100% 29.99 in 10.0 mi NNW 4.6 mph - N/A   Mostly Cloudy
8:35 AM 42.8 °F 41.1 °F 42.8 °F 100% 29.99 in 10.0 mi NW 3.5 mph - N/A   Mostly Cloudy
9:15 AM 44.6 °F 42.2 °F 42.8 °F 93% 30.01 in 10.0 mi NW 4.6 mph - N/A   Unknown
9:35 AM 44.6 °F 43.1 °F 42.8 °F 93% 30.01 in 10.0 mi WNW 3.5 mph - N/A   Overcast
9:55 AM 46.4 °F 43.5 °F 42.8 °F 87% 30.01 in 10.0 mi NNW 5.8 mph - N/A   Mostly Cloudy
10:15 AM 46.4 °F 43.5 °F 41.0 °F 81% 30.01 in 10.0 mi NW 5.8 mph - N/A   Mostly Cloudy
10:35 AM 48.2 °F - 42.8 °F 82% 30.01 in 10.0 mi WNW 4.6 mph - N/A   Mostly Cloudy
10:55 AM 50.0 °F - 42.8 °F 76% 30.01 in 10.0 mi WNW 4.6 mph - N/A   Scattered Clouds
11:15 AM 50.0 °F - 42.8 °F 76% 30.00 in 10.0 mi West 3.5 mph - N/A   Clear
11:35 AM 51.8 °F - 44.6 °F 76% 29.99 in 10.0 mi WNW 5.8 mph - N/A   Clear
11:55 AM 53.6 °F - 44.6 °F 72% 29.99 in 10.0 mi WSW 9.2 mph - N/A   Clear
12:15 PM 55.4 °F - 44.6 °F 67% 29.98 in 10.0 mi SW 9.2 mph - N/A   Clear
12:35 PM 57.2 °F - 44.6 °F 63% 29.97 in 10.0 mi WSW 9.2 mph - N/A   Clear
12:55 PM 59.0 °F - 46.4 °F 63% 29.96 in 10.0 mi SW 10.4 mph - N/A   Clear
1:15 PM 59.0 °F - 44.6 °F 59% 29.95 in 10.0 mi WSW 10.4 mph 16.1 mph N/A   Clear
1:35 PM 60.8 °F - 46.4 °F 59% 29.95 in 10.0 mi West 15.0 mph 18.4 mph N/A   Clear
1:55 PM 60.8 °F - 46.4 °F 59% 29.95 in 10.0 mi West 16.1 mph 21.9 mph N/A   Scattered Clouds
2:15 PM 60.8 °F - 46.4 °F 59% 29.94 in 10.0 mi WSW 15.0 mph 19.6 mph N/A   Mostly Cloudy
2:35 PM 60.8 °F - 46.4 °F 59% 29.94 in 10.0 mi WSW 12.7 mph 24.2 mph N/A   Mostly Cloudy
2:55 PM 60.8 °F - 46.4 °F 59% 29.93 in 10.0 mi West 9.2 mph 18.4 mph N/A   Mostly Cloudy
3:15 PM 60.8 °F - 46.4 °F 59% 29.94 in 10.0 mi West 10.4 mph 18.4 mph N/A   Mostly Cloudy
3:35 PM 60.8 °F - 46.4 °F 59% 29.94 in 10.0 mi WSW 15.0 mph 20.7 mph N/A   Scattered Clouds
3:55 PM 60.8 °F - 46.4 °F 59% 29.93 in 10.0 mi West 10.4 mph 17.3 mph N/A   Scattered Clouds
4:15 PM 60.8 °F - 46.4 °F 59% 29.94 in 10.0 mi West 13.8 mph - N/A   Scattered Clouds
4:35 PM 62.6 °F - 46.4 °F 55% 29.95 in 10.0 mi West 11.5 mph 16.1 mph N/A   Overcast
4:55 PM 60.8 °F - 46.4 °F 59% 29.95 in 10.0 mi West 11.5 mph 17.3 mph N/A   Overcast
5:15 PM 60.8 °F - 46.4 °F 59% 29.96 in 10.0 mi West 9.2 mph - N/A   Overcast
5:35 PM 59.0 °F - 46.4 °F 63% 29.97 in 10.0 mi West 9.2 mph - N/A   Overcast
5:55 PM 59.0 °F - 46.4 °F 63% 29.98 in 10.0 mi West 6.9 mph - N/A   Overcast
6:15 PM 57.2 °F - 42.8 °F 59% 29.99 in 10.0 mi NNW 6.9 mph - N/A   Overcast
6:35 PM 55.4 °F - 41.0 °F 58% 30.00 in 10.0 mi NW 5.8 mph - N/A   Mostly Cloudy
6:55 PM 55.4 °F - 39.2 °F 54% 30.01 in 10.0 mi NNW 5.8 mph - N/A   Mostly Cloudy
7:15 PM 55.4 °F - 37.4 °F 51% 30.02 in 10.0 mi WNW 4.6 mph - N/A   Mostly Cloudy
7:35 PM 53.6 °F - 37.4 °F 54% 30.03 in 10.0 mi Calm Calm - N/A   Scattered Clouds
7:55 PM 51.8 °F - 37.4 °F 58% 30.03 in 10.0 mi NNW 3.5 mph - N/A   Clear
8:15 PM 51.8 °F - 35.6 °F 54% 30.04 in 10.0 mi NNW 6.9 mph - N/A   Clear
8:55 PM 48.2 °F - 35.6 °F 62% 30.06 in 10.0 mi NNW 9.2 mph - N/A   Clear
9:15 PM 50.0 °F - 33.8 °F 54% 30.07 in 10.0 mi NNW 9.2 mph - N/A   Clear
9:35 PM 50.0 °F - 32.0 °F 50% 30.08 in 10.0 mi NNW 10.4 mph 16.1 mph N/A   Clear
9:55 PM 50.0 °F - 30.2 °F 47% 30.09 in 10.0 mi NNW 12.7 mph 19.6 mph N/A   Clear
10:15 PM 48.2 °F - 30.2 °F 50% 30.10 in 10.0 mi NNW 11.5 mph 18.4 mph N/A   Clear
10:35 PM 48.2 °F - 32.0 °F 54% 30.11 in 10.0 mi NNW 10.4 mph 18.4 mph N/A   Clear
10:55 PM 46.4 °F 41.9 °F 32.0 °F 57% 30.12 in 10.0 mi NNW 9.2 mph 16.1 mph N/A   Clear
11:15 PM 46.4 °F 42.4 °F 32.0 °F 57% 30.13 in 10.0 mi NNW 8.1 mph - N/A   Clear
11:35 PM 44.6 °F 40.7 °F 32.0 °F 61% 30.15 in 10.0 mi NNW 6.9 mph - N/A   Clear
11:55 PM 44.6 °F 40.2 °F 32.0 °F 61% 30.15 in 10.0 mi NNW 8.1 mph - N/A   Clear